Volver al catálogo

DNEPR 1 R/B

ActivoLEO
NORAD 26550·ROCKET BODY·🇷🇺 Russia

Lanzado Sep 26, 2000 desde Baikonur Cosmodrome

Loading…

Próximos Pases (próximas 24 horas)

TLE

ActualizadoSource: Space-Track

Época: Sep 14, 2026, 21:30 UTC

1 26550U 00057F   26257.89635417 -.00000042  00000-0  24262-4 0  9992
2 26550  64.5596  82.7278 0522141   7.8592 353.0251 13.82130213309088

Sigue DNEPR 1 R/B en tiempo real con AllMySat

Download on the App Store